Flag for Germany Weather past 2 weeks in Chemnitz, Saxony, Germany

Now
55 °F

Passing clouds.


Feels Like: 54 °F
Forecast: 30 / 48 °F
Wind: 6 mph from Southwest

Location: Altenburg Nobitz


UV Index: 3 (Moderate)

Visibility: N/A


Pressure: 30.09 "Hg

Humidity: 36%

Dew point: 28 °F

Location of ChemnitzLocation

Historic Weather in Chemnitz

°F

Chemnitz temperature yesterday

Maximum temperature yesterday: 52 °F (at 4:20 PM)
Minimum temperature yesterday: 39 °F (at 8:20 AM)
Average temperature yesterday: 46 °F

Past Weeks' High & Low Weather Summary

 TemperatureHumidityPressure
High73 °F (Apr 3, 1:50 PM)94% (Apr 12, 9:20 AM)30.45 "Hg (Apr 12, 9:20 AM)
Low39 °F (Apr 16, 8:20 AM)31% (Apr 2, 4:50 PM)29.65 "Hg (Apr 3, 3:20 PM)
Average55 °F62%30.02 "Hg
* Reported Apr 2 3:20 PM — Apr 17 3:20 PM, Chemnitz, Weather by CustomWeather, © 2014

Note: Actual official high and low records may vary slightly from our data, if they occured in-between our weather recording intervals... More about our weather records

Advertising

Historic Weather Conditions — Data for Previous 24 hours

 ConditionsComfort  
Time TempWeatherWind HumidityBarometerVisibility
3:20 PM
Apr 17
55 °FPassing clouds.7 mph33%30.12 "HgN/A
2:50 PM55 °FPassing clouds.8 mph36%30.15 "HgN/A
2:20 PM55 °FPassing clouds.7 mph36%30.18 "HgN/A
1:50 PM55 °FPassing clouds.9 mph36%30.21 "HgN/A
1:20 PM54 °FPassing clouds.8 mph38%30.21 "HgN/A
12:50 PM54 °FPassing clouds.7 mph33%30.24 "HgN/A
12:20 PM54 °FPassing clouds.8 mph35%30.24 "HgN/A
11:50 AM52 °FPassing clouds.8 mph35%30.27 "HgN/A
11:20 AM52 °FPassing clouds.7 mph35%30.30 "HgN/A
10:50 AM50 °FPassing clouds.8 mph40%30.30 "HgN/A
10:20 AM50 °FSunny.8 mph50%30.30 "Hg10 mi
9:50 AM46 °FPassing clouds.7 mph57%30.33 "HgN/A
9:20 AM45 °FPassing clouds.6 mph66%30.33 "HgN/A
8:50 AM43 °FPassing clouds.5 mph71%30.33 "HgN/A
8:20 AM39 °FPassing clouds.6 mph75%30.33 "HgN/A
7:50 PM
Apr 16
48 °FSunny.2 mph46%30.39 "Hg10 mi
7:20 PM48 °FSunny.6 mph43%30.39 "Hg10 mi
6:50 PM50 °FPassing clouds.6 mph47%30.39 "HgN/A
6:20 PM50 °FPassing clouds.7 mph43%30.39 "HgN/A
5:50 PM48 °FSunny.7 mph50%30.39 "Hg10 mi
5:20 PM48 °FScattered clouds.8 mph50%30.42 "HgN/A
4:50 PM50 °FScattered clouds.8 mph40%30.42 "HgN/A
4:20 PM52 °FScattered clouds.7 mph47%30.42 "HgN/A
Weather by CustomWeather, © 2014

See weather overview